Погода в Нововасилевке

Украина / Херсонская область     46°38′52″N   34°32′38″E
темп.,
°C
ветер,
м/с
пор.,
м/с
влажн.,
%
обл.,
%
осадки,
мм/ч
давл.,
гПа
погр.,
м
16 апреля, пт
пт1600:00+7ююз61082100 0.0 1015643
03:00+7юз6108788 0.0 1015600
06:00+7юз6118352 0.0 1016669
09:00+10юз68685 0.0 1016946
12:00+12юз8955100 0.3 10161616
15:00+14юз9114654 0.9 10162473
18:00+11юз785448 0.2 10171572
21:00+6зсз37775 0.4 1019202
17 апреля, сб
сб1700:00+5юз478184 0.0 1020202
03:00+4юз499035 0.0 1021239
06:00+4юз369295 0.0 1021175
09:00+9з56675 0.0 1022755
12:00+13зсз455055 0.0 10221480
15:00+14зсз2245100 0.0 10221855
18:00+12юз2256100 0.0 102191
21:00+11вюв2257100 0.0 102224
18 апреля, вс
вс1800:00+9юв347078 0.0 1021135
03:00+7вюв3576100 0.0 1020118
06:00+6в3778100 0.0 1020163
09:00+11в6960100 0.0 1019826
12:00+14вюв664891 0.0 10181413
15:00+15вюв554718 0.0 10171506
18:00+12юв566264 0.0 1018518
21:00+9вюв387494 0.0 1017292
19 апреля, пн
пн1900:00+9в277793 0.0 1017352
03:00+9всв3777100 0.0 1016311
06:00+9всв4877100 0.0 1015383
09:00+10в5974100 0.0 1015643
12:00+12в71073100 0.1 1013819
15:00+11в61187100 1.1 1011701
18:00+10в71295100 1.1 1008557
21:00+10в81597100 2.8 1005577
20 апреля, вт
вт2000:00+11юв61098100 0.9 1002357
03:00+11ю61496100 3.9 1001563
06:00+10ю4119299 1.9 998446
09:00+11ююз7118147 2.4 9981028
12:00+12ююз101673100 0.4 9981508
15:00+10ююз131980100 0.9 9971573
18:00+8ююз111787100 0.1 9981229
21:00+8юз101588100 0.1 1001821